Location: NJAA Observatory
(40.6819°N, 74.8979°W)
Time: 03:12:31
(UTC-05:00)

Iridium 4 - Visible Passes

Search period start: 27 November 2014 00:00
Search period end: 07 December 2014 00:00
Orbit: 774 x 777 km, 86.4° (Epoch: 26 November)

Date Brightness Start Highest point End Pass type
(mag) Time Alt. Az. Time Alt. Az. Time Alt. Az.
27 Nov 6.7 06:00:33 10° N 06:05:34 47° E 06:10:33 10° SSE visible
27 Nov 7.3 17:20:28 10° E 17:21:34 11° ENE 17:21:34 11° ENE visible
27 Nov 5.5 18:56:26 10° S 19:01:37 82° W 19:02:06 73° NNW visible
28 Nov 7.7 05:27:01 10° NNE 05:31:19 26° ENE 05:35:35 10° SE visible
28 Nov 5.5 18:22:35 10° SSE 18:27:37 53° E 18:29:40 33° NNE visible
28 Nov 8.0 20:05:16 10° WSW 20:08:38 17° WNW 20:10:13 15° NW visible
29 Nov 8.4 04:54:15 10° NE 04:56:55 14° ENE 04:59:34 10° ESE visible
29 Nov 6.3 17:49:20 10° SE 17:53:43 29° E 17:57:21 14° NNE visible
29 Nov 7.2 19:29:43 10° SW 19:34:17 31° W 19:37:55 15° NNW visible
30 Nov 6.0 05:58:52 10° N 06:04:03 66° E 06:09:12 10° SSE visible
30 Nov 7.0 17:16:58 10° ESE 17:19:58 16° ENE 17:22:58 10° NE visible
30 Nov 6.0 18:54:58 10° SSW 19:00:04 58° W 19:05:13 10° N visible
01 Dec 7.1 05:25:06 10° NNE 05:29:52 35° E 05:34:35 10° SSE visible
01 Dec 5.4 18:20:49 10° S 18:26:00 75° E 18:31:12 10° N visible
01 Dec 8.4 20:05:13 10° W 20:07:17 12° WNW 20:09:20 10° NW visible
02 Dec 8.1 04:51:49 10° NNE 04:55:32 19° ENE 04:59:14 10° ESE visible
02 Dec 5.8 06:31:30 10° NNW 06:36:28 47° W 06:41:25 10° SSW visible
02 Dec 5.9 17:47:14 10° SSE 17:52:02 40° E 17:56:51 10° NNE visible
02 Dec 7.7 19:28:48 10° SW 19:32:51 23° WNW 19:36:55 10° NNW visible
03 Dec 8.7 04:20:36 10° ENE 04:21:04 10° ENE 04:21:31 10° ENE visible
03 Dec 5.5 05:57:15 10° N 06:02:29 88° W 06:07:40 10° S visible
03 Dec 6.7 17:14:20 10° SE 17:18:12 22° E 17:22:05 10° NNE visible
03 Dec 6.7 18:53:40 10° SSW 18:58:33 41° W 19:03:29 10° NNW visible
04 Dec 6.5 05:23:19 10° N 05:28:22 49° E 05:33:22 10° SSE visible
04 Dec 5.6 18:19:13 10° S 18:24:24 78° W 18:29:37 10° N visible
05 Dec 7.6 04:49:44 10° NNE 04:54:06 27° E 04:58:27 10° SE visible
05 Dec 6.2 06:30:09 10° NNW 06:34:47 34° W 06:39:25 10° SSW visible
05 Dec 5.6 17:45:19 10° SSE 17:50:22 56° E 17:55:27 10° NNE visible
05 Dec 8.2 19:28:12 10° WSW 19:31:26 17° WNW 19:34:41 10° NW visible
06 Dec 8.4 04:16:52 10° NE 04:19:43 15° ENE 04:22:32 10° ESE visible
06 Dec 5.5 05:55:43 10° N 06:00:52 63° W 06:05:59 10° S visible
06 Dec 6.3 17:12:01 10° SE 17:16:28 30° E 17:20:56 10° NNE visible
06 Dec 7.3 18:52:33 10° SW 18:57:04 30° W 19:01:37 10° NNW visible
